Regional Weather Roundup
Issued by NWS Cleveland, OH

Home | Current Version | Previous Version | Text Only | Print | Product List | Glossary Off
Versions: 1 2 3 4 5 6 7 8 9 10 11 12 13 14 15 16 17 18 19 20 21 22 23 24 25 26 27 28 29 30 31 32 33 34 35 36 37 38 39 40 41 42 43 44 45 46 47 48 49 50

000
ASUS41 KCLE 272210
RWRCLE
OHIO REGIONAL WEATHER ROUNDUP
NATIONAL WEATHER SERVICE WILMINGTON, OH
600 PM EDT MON JUL 27 2015

NOTE: "FAIR" INDICATES FEW OR NO CLOUDS BELOW 12,000 FEET WITH NO
SIGNIFICANT WEATHER AND/OR OBSTRUCTIONS TO VISIBILITY.

OHZ001>008-015>018-024>027-034-035-043-044-272300-
   NORTHWEST OHIO

CITY           SKY/WX    TMP DP  RH WIND       PRES   REMARKS
DEFIANCE       FAIR      87  62  43 E9        30.00F
FINDLAY        FAIR      87  60  40 E8        29.98F
TOLEDO EXPRESS FAIR      85  60  42 NE10      30.00F
TOLEDO EXEC    FAIR      85  60  42 E8        30.01F
LIMA           FAIR      85  60  42 E7        30.00S
$$

OHZ009>014-019>023-028>033-038-089-272300-
   NORTHEAST OHIO

CITY           SKY/WX    TMP DP  RH WIND       PRES   REMARKS
CLE-HOPKINS    FAIR      83  63  50 NE13      30.01F
CLE-LAKEFRONT  FAIR      80  70  71 NE13      29.99S
CUY CO. ARPT   MOSUNNY   86  68  54 NE14      30.02S
LORAIN-ELYRIA  FAIR      83  60  45 NE12      30.01S
ASHTABULA      FAIR      83  62  49 NE7       30.02S
AKRON-CANTON   FAIR      88  58  36 CALM      30.00F
WOOSTER        FAIR      85  58  39 CALM      30.00F
MANSFIELD      FAIR      86  57  37 NE8       30.01F
YOUNGSTOWN     FAIR      87  59  38 NE7       30.01S
$$

OHZ042-051>053-060>062-070>072-077>081-272300-
  SOUTHWEST OHIO

CITY           SKY/WX    TMP DP  RH WIND       PRES   REMARKS
CINC-COVINGTON FAIR      87  72  60 NE7       29.95F HX  93
CINC-LUNKEN    FAIR      84  74  71 NE5       29.94F HX  91
HAMILTON       FAIR      86  71  60 CALM      29.96F HX  91
DAYTON         PTSUNNY   81  72  74 NE10      29.99S
WRIGHT-PAT AFB FAIR      82  74  77 NE6       29.97S
DAYTON GENERAL   N/A    N/A N/A N/A MISG      29.97S
WILMINGTON     FAIR      83  71  67 VRB6      29.97F
$$

OHZ036-037-039>041-045>050-054>059-063>069-073>076-082>088-272300-
  CENTRAL AND SOUTHEAST OHIO

CITY           SKY/WX    TMP DP  RH WIND       PRES   REMARKS
COLUMBUS       PTSUNNY   87  69  54 NE5       29.96F HX  91
OSU AIRPORT    FAIR      85  70  60 NW3       29.98S
BOLTON FIELD   MOSUNNY   82  72  69 NE5       29.98F
RICKENBACK AFB CLOUDY    81  71  72 SE3       29.96S
NEWARK         PTSUNNY   86  68  54 N6        29.97F
MARION         FAIR      87  58  37 N7        30.00S
LANCASTER      FAIR      84  72  67 E5        29.97F
ZANESVILLE     FAIR      86  67  52 N6        29.97F
NEW PHILLY     FAIR      86  66  51 N5        29.99F
$$


USA.gov is the U.S. government's official web portal to all federal, state and local government web resources and services.